| time (UTC) | temp F | wind direction | speed knots | gust knots | rain 1hr in | rain 24hr in | rain mn in | humidity % | barometer mb |
| 20260901204839 | 78 | 202 | 1.7 | 6.1 | 0.00 | 0.04 | 0.03 | 85 | 1015.3 |
| 20260901204342 | 78 | 265 | 2.6 | 6.1 | 0.00 | 0.04 | 0.03 | 86 | 1015.4 |
| 20260901203901 | 78 | 196 | 2.6 | 5.2 | 0.00 | 0.04 | 0.03 | 86 | 1015.4 |
| 20260901203339 | 78 | 235 | 1.7 | 4.3 | 0.00 | 0.04 | 0.03 | 87 | 1015.4 |
| 20260901202843 | 78 | 245 | 1.7 | 7.8 | 0.00 | 0.04 | 0.03 | 87 | 1015.5 |
| 20260901202337 | 78 | 259 | 2.6 | 7.8 | 0.00 | 0.04 | 0.03 | 86 | 1015.6 |
| 20260901201839 | 78 | 162 | 0.9 | 8.7 | 0.00 | 0.04 | 0.03 | 87 | 1015.4 |
| 20260901201401 | 78 | 188 | 1.7 | 4.3 | 0.00 | 0.04 | 0.03 | 87 | 1015.3 |
| 20260901200847 | 78 | 138 | 1.7 | 6.1 | 0.00 | 0.04 | 0.03 | 87 | 1015.4 |
| 20260901200333 | 78 | 227 | 1.7 | 6.1 | 0.00 | 0.04 | 0.03 | 88 | 1015.3 |
| 20260901195841 | 78 | 154 | 0.9 | 5.2 | 0.00 | 0.05 | 0.03 | 88 | 1015.3 |
| 20260901195337 | 78 | 178 | 1.7 | 4.3 | 0.00 | 0.05 | 0.03 | 87 | 1015.3 |
| 20260901194844 | 78 | 147 | 1.7 | 6.1 | 0.00 | 0.05 | 0.03 | 88 | 1015.3 |
| 20260901194342 | 77 | 216 | 1.7 | 6.1 | 0.00 | 0.05 | 0.03 | 89 | 1015.3 |
| 20260901193847 | 77 | 222 | 1.7 | 3.5 | 0.00 | 0.05 | 0.03 | 89 | 1015.4 |
| 20260901193408 | 77 | 51 | 1.7 | 3.5 | 0.00 | 0.05 | 0.03 | 88 | 1015.3 |
| 20260901192845 | 77 | 151 | 0.9 | 3.5 | 0.00 | 0.05 | 0.03 | 89 | 1015.6 |
| 20260901192338 | 77 | 261 | 1.7 | 3.5 | 0.00 | 0.05 | 0.03 | 88 | 1015.5 |
| 20260901191910 | 77 | 53 | 0.9 | 4.3 | 0.00 | 0.05 | 0.03 | 88 | 1015.7 |
| 20260901191337 | 77 | 48 | 1.7 | 4.3 | 0.00 | 0.05 | 0.03 | 88 | 1015.6 |
| 20260901190844 | 77 | 112 | 1.7 | 6.1 | 0.00 | 0.05 | 0.03 | 89 | 1015.7 |
| 20260901190347 | 77 | 83 | 1.7 | 6.1 | 0.00 | 0.05 | 0.03 | 88 | 1015.6 |
| 20260901185831 | 77 | 113 | 0.9 | 5.2 | 0.00 | 0.05 | 0.03 | 88 | 1015.7 |
| 20260901185338 | 77 | 139 | 1.7 | 5.2 | 0.00 | 0.05 | 0.03 | 87 | 1015.8 |
| 20260901184834 | 77 | 55 | 1.7 | 4.3 | 0.00 | 0.05 | 0.03 | 87 | 1015.6 |
| 20260901183835 | 78 | 202 | 1.7 | 5.2 | 0.00 | 0.05 | 0.03 | 86 | 1015.5 |
| 20260901183337 | 78 | 219 | 1.7 | 5.2 | 0.00 | 0.05 | 0.03 | 86 | 1015.4 |
| 20260901182842 | 78 | 308 | 1.7 | 5.2 | 0.00 | 0.05 | 0.03 | 85 | 1015.3 |
| 20260901182337 | 78 | 80 | 1.7 | 5.2 | 0.00 | 0.05 | 0.03 | 86 | 1015.4 |
| 20260901181835 | 78 | 161 | 1.7 | 5.2 | 0.00 | 0.05 | 0.03 | 86 | 1015.3 |
| 20260901181337 | 78 | 80 | 0.9 | 3.5 | 0.00 | 0.05 | 0.03 | 85 | 1015.2 |
| 20260901180848 | 79 | 91 | 1.7 | 6.1 | 0.00 | 0.05 | 0.03 | 85 | 1015.3 |
| 20260901180410 | 79 | 236 | 3.5 | 6.1 | 0.00 | 0.05 | 0.03 | 84 | 1015.2 |
| 20260901175833 | 79 | 310 | 2.6 | 5.2 | 0.00 | 0.06 | 0.03 | 85 | 1015.1 |
| 20260901175341 | 79 | 218 | 1.7 | 6.1 | 0.00 | 0.06 | 0.03 | 86 | 1015.0 |
| 20260901174841 | 79 | 240 | 1.7 | 6.1 | 0.00 | 0.06 | 0.03 | 85 | 1015.0 |
| 20260901174343 | 79 | 252 | 2.6 | 5.2 | 0.00 | 0.06 | 0.03 | 85 | 1015.1 |
| 20260901173903 | 79 | 230 | 1.7 | 7.8 | 0.00 | 0.06 | 0.03 | 86 | 1014.9 |
| 20260901173345 | 79 | 242 | 3.5 | 7.8 | 0.00 | 0.06 | 0.03 | 84 | 1014.8 |
| 20260901172852 | 79 | 18 | 2.6 | 7.0 | 0.00 | 0.06 | 0.03 | 84 | 1014.6 |
| 20260901172351 | 79 | 173 | 1.7 | 7.0 | 0.00 | 0.06 | 0.03 | 86 | 1014.8 |
| 20260901171852 | 79 | 209 | 2.6 | 6.1 | 0.00 | 0.06 | 0.03 | 85 | 1014.8 |
| 20260901171334 | 79 | 205 | 2.6 | 5.2 | 0.00 | 0.06 | 0.03 | 84 | 1014.7 |
| 20260901170840 | 79 | 150 | 1.7 | 4.3 | 0.00 | 0.06 | 0.03 | 86 | 1014.6 |
| 20260901170343 | 79 | 275 | 1.7 | 3.5 | 0.00 | 0.06 | 0.03 | 84 | 1014.7 |
| 20260901165847 | 80 | 84 | 0.9 | 7.8 | 0.00 | 0.15 | 0.03 | 84 | 1014.6 |
| 20260901165401 | 80 | 211 | 3.5 | 8.7 | 0.00 | 0.15 | 0.03 | 85 | 1014.7 |
| 20260901164843 | 79 | 243 | 4.3 | 8.7 | 0.00 | 0.15 | 0.03 | 84 | 1014.8 |
| 20260901164343 | 79 | 228 | 2.6 | 7.0 | 0.00 | 0.15 | 0.03 | 85 | 1014.7 |
| 20260901163835 | 79 | 105 | 1.7 | 7.8 | 0.00 | 0.15 | 0.03 | 84 | 1014.7 |
| 20260901163338 | 79 | 232 | 4.3 | 7.8 | 0.00 | 0.15 | 0.03 | 85 | 1014.7 |
| 20260901162833 | 78 | 209 | 2.6 | 6.1 | 0.00 | 0.15 | 0.03 | 86 | 1014.7 |
| 20260901162346 | 78 | 244 | 2.6 | 6.1 | 0.01 | 0.15 | 0.03 | 86 | 1014.8 |
| 20260901161846 | 78 | 222 | 1.7 | 5.2 | 0.01 | 0.15 | 0.03 | 86 | 1014.9 |
| 20260901161410 | 78 | 207 | 2.6 | 7.0 | 0.01 | 0.15 | 0.03 | 85 | 1014.8 |
| 20260901160830 | 79 | 211 | 2.6 | 7.0 | 0.01 | 0.15 | 0.03 | 84 | 1014.9 |
| 20260901160331 | 79 | 269 | 1.7 | 7.8 | 0.01 | 0.15 | 0.03 | 85 | 1014.9 |
| 20260901155841 | 78 | 205 | 1.7 | 7.8 | 0.01 | 0.16 | 0.03 | 85 | 1014.8 |
| 20260901155402 | 78 | 221 | 3.5 | 7.8 | 0.01 | 0.16 | 0.03 | 85 | 1014.8 |
| 20260901154848 | 77 | 209 | 3.5 | 7.0 | 0.01 | 0.16 | 0.03 | 88 | 1014.8 |
| 20260901154345 | 78 | 242 | 2.6 | 5.2 | 0.01 | 0.16 | 0.03 | 87 | 1014.8 |
| 20260901153838 | 77 | 250 | 2.6 | 5.2 | 0.01 | 0.16 | 0.03 | 86 | 1014.7 |
| 20260901153343 | 77 | 238 | 2.6 | 10.4 | 0.01 | 0.16 | 0.03 | 88 | 1014.6 |
| 20260901152837 | 77 | 215 | 4.3 | 10.4 | 0.01 | 0.16 | 0.03 | 87 | 1014.6 |
| 20260901152343 | 77 | 198 | 2.6 | 7.8 | 0.00 | 0.15 | 0.02 | 88 | 1014.6 |
| 20260901151848 | 77 | 245 | 4.3 | 7.8 | 0.00 | 0.15 | 0.02 | 88 | 1014.5 |
| 20260901151354 | 77 | 163 | 1.7 | 5.2 | 0.00 | 0.15 | 0.02 | 89 | 1014.5 |
| 20260901150854 | 76 | 205 | 2.6 | 6.1 | 0.00 | 0.15 | 0.02 | 89 | 1014.5 |
| 20260901150358 | 76 | 194 | 1.7 | 6.1 | 0.00 | 0.15 | 0.02 | 89 | 1014.5 |
| 20260901145831 | 76 | 272 | 1.7 | 6.1 | 0.00 | 0.22 | 0.02 | 89 | 1014.4 |
| 20260901145339 | 76 | 177 | 1.7 | 6.1 | 0.00 | 0.22 | 0.02 | 89 | 1014.5 |
| 20260901144845 | 76 | 234 | 2.6 | 7.8 | 0.00 | 0.22 | 0.02 | 90 | 1014.4 |
| 20260901144352 | 76 | 212 | 2.6 | 7.8 | 0.00 | 0.22 | 0.02 | 90 | 1014.4 |
| 20260901143834 | 76 | 220 | 2.6 | 4.3 | 0.00 | 0.22 | 0.02 | 90 | 1014.5 |
| 20260901143335 | 76 | 182 | 0.9 | 6.1 | 0.00 | 0.22 | 0.02 | 90 | 1014.6 |
| 20260901142904 | 76 | 215 | 1.7 | 6.1 | 0.00 | 0.22 | 0.02 | 90 | 1014.5 |
| 20260901142403 | 76 | 252 | 1.7 | 5.2 | 0.00 | 0.22 | 0.02 | 90 | 1014.7 |
| 20260901141903 | 76 | 213 | 1.7 | 5.2 | 0.00 | 0.22 | 0.02 | 90 | 1014.6 |
| 20260901141334 | 76 | 186 | 1.7 | 3.5 | 0.00 | 0.22 | 0.02 | 91 | 1014.7 |
| 20260901140338 | 76 | 231 | 0.9 | 4.3 | 0.00 | 0.22 | 0.02 | 90 | 1014.7 |
| 20260901135846 | 76 | 214 | 1.7 | 6.1 | 0.00 | 0.27 | 0.02 | 90 | 1014.8 |
| 20260901135341 | 76 | 232 | 1.7 | 6.1 | 0.00 | 0.27 | 0.02 | 90 | 1014.8 |
| 20260901134835 | 76 | 207 | 2.6 | 6.1 | 0.00 | 0.27 | 0.02 | 91 | 1014.8 |
| 20260901134349 | 75 | 285 | 0.9 | 6.1 | 0.00 | 0.27 | 0.02 | 92 | 1014.8 |
| 20260901133842 | 75 | 281 | 1.7 | 6.1 | 0.00 | 0.27 | 0.02 | 92 | 1014.9 |
| 20260901133357 | 75 | 67 | 0.9 | 3.5 | 0.00 | 0.27 | 0.02 | 91 | 1014.9 |
| 20260901132910 | 75 | 176 | 0.9 | 5.2 | 0.00 | 0.27 | 0.02 | 91 | 1014.8 |
| 20260901132344 | 75 | 195 | 1.7 | 5.2 | 0.00 | 0.27 | 0.02 | 92 | 1014.7 |
| 20260901131859 | 75 | 311 | 2.6 | 4.3 | 0.00 | 0.27 | 0.02 | 93 | 1014.9 |
| 20260901131333 | 75 | 215 | 1.7 | 5.2 | 0.00 | 0.27 | 0.02 | 94 | 1014.7 |
| 20260901130847 | 74 | 242 | 2.6 | 5.2 | 0.00 | 0.27 | 0.02 | 95 | 1014.6 |
| 20260901130347 | 74 | 204 | 1.7 | 5.2 | 0.00 | 0.27 | 0.02 | 96 | 1014.8 |
| 20260901125835 | 73 | 192 | 1.7 | 4.3 | 0.00 | 0.28 | 0.02 | 97 | 1014.8 |
| 20260901125349 | 72 | 188 | 0.9 | 5.2 | 0.00 | 0.28 | 0.02 | 97 | 1015.0 |
| 20260901124843 | 72 | 205 | 1.7 | 5.2 | 0.00 | 0.28 | 0.02 | 97 | 1014.9 |
| 20260901124336 | 72 | 180 | 1.7 | 5.2 | 0.00 | 0.28 | 0.02 | 97 | 1014.9 |
| 20260901123833 | 72 | 193 | 0.9 | 4.3 | 0.00 | 0.28 | 0.02 | 97 | 1015.0 |
| 20260901123349 | 72 | 148 | 0.9 | 7.8 | 0.00 | 0.28 | 0.02 | 97 | 1014.9 |
| 20260901122842 | 72 | 216 | 0.9 | 6.1 | 0.00 | 0.28 | 0.02 | 97 | 1014.9 |
| 20260901122337 | 72 | 275 | 1.7 | 6.1 | 0.00 | 0.28 | 0.02 | 97 | 1014.8 |
| 20260901121851 | 71 | 145 | 0.9 | 8.7 | 0.00 | 0.28 | 0.02 | 97 | 1014.8 |
| 20260901121347 | 71 | 69 | 0.9 | 5.2 | 0.00 | 0.28 | 0.02 | 97 | 1014.7 |
| 20260901120841 | 71 | 128 | 1.7 | 4.3 | 0.00 | 0.28 | 0.02 | 97 | 1014.8 |
| 20260901120337 | 71 | 64 | 0.9 | 2.6 | 0.00 | 0.28 | 0.02 | 97 | 1014.6 |
| 20260901115845 | 71 | 196 | 0.9 | 3.5 | 0.00 | 0.28 | 0.02 | 97 | 1014.6 |
| 20260901115400 | 71 | 155 | 0.9 | 7.0 | 0.00 | 0.28 | 0.02 | 97 | 1014.5 |
| 20260901114851 | 71 | 92 | 0.9 | 7.0 | 0.00 | 0.28 | 0.02 | 97 | 1014.7 |
| 20260901114346 | 70 | 88 | 0.9 | 3.5 | 0.00 | 0.28 | 0.02 | 97 | 1014.6 |
| 20260901113841 | 70 | 158 | 0.9 | 6.1 | 0.00 | 0.28 | 0.02 | 97 | 1014.5 |
| 20260901113335 | 70 | 84 | 1.7 | 6.1 | 0.00 | 0.28 | 0.02 | 97 | 1014.4 |
| 20260901112833 | 70 | 173 | 1.7 | 5.2 | 0.00 | 0.28 | 0.02 | 97 | 1014.4 |
| 20260901112348 | 70 | 158 | 1.7 | 5.2 | 0.00 | 0.28 | 0.02 | 97 | 1014.4 |
| 20260901111903 | 70 | 69 | 1.7 | 5.2 | 0.00 | 0.28 | 0.02 | 96 | 1014.4 |
| 20260901111335 | 70 | 215 | 1.7 | 5.2 | 0.00 | 0.28 | 0.02 | 96 | 1014.3 |
| 20260901110852 | 69 | 165 | 0.9 | 4.3 | 0.00 | 0.28 | 0.02 | 96 | 1014.3 |
| 20260901110409 | 69 | 272 | 1.7 | 7.0 | 0.00 | 0.28 | 0.02 | 96 | 1014.3 |
| 20260901105835 | 69 | 285 | 2.6 | 7.0 | 0.00 | 0.28 | 0.02 | 97 | 1014.3 |
| 20260901105351 | 69 | 201 | 1.7 | 5.2 | 0.00 | 0.28 | 0.02 | 96 | 1014.2 |
| 20260901104846 | 69 | 194 | 1.7 | 6.1 | 0.00 | 0.28 | 0.02 | 96 | 1014.1 |
| 20260901104341 | 69 | 200 | 1.7 | 5.2 | 0.00 | 0.28 | 0.02 | 96 | 1014.2 |
| 20260901103835 | 69 | 196 | 2.6 | 6.1 | 0.00 | 0.28 | 0.02 | 96 | 1014.2 |
| 20260901103350 | 69 | 223 | 1.7 | 6.1 | 0.00 | 0.28 | 0.02 | 96 | 1014.1 |
| 20260901102843 | 69 | 185 | 2.6 | 4.3 | 0.00 | 0.28 | 0.02 | 96 | 1014.1 |
| 20260901102338 | 69 | 225 | 1.7 | 7.0 | 0.00 | 0.28 | 0.02 | 96 | 1014.0 |
| 20260901101851 | 69 | 205 | 2.6 | 7.0 | 0.00 | 0.28 | 0.02 | 96 | 1013.9 |
| 20260901101346 | 69 | 216 | 0.9 | 5.2 | 0.00 | 0.28 | 0.02 | 96 | 1013.9 |
| 20260901100901 | 69 | 191 | 1.7 | 6.1 | 0.00 | 0.28 | 0.02 | 96 | 1013.7 |
| 20260901100356 | 69 | 175 | 0.9 | 8.7 | 0.00 | 0.28 | 0.02 | 96 | 1013.7 |
| 20260901095842 | 69 | 209 | 1.7 | 3.5 | 0.00 | 0.28 | 0.02 | 96 | 1013.8 |
| 20260901095335 | 69 | 194 | 1.7 | 6.1 | 0.00 | 0.28 | 0.02 | 96 | 1013.8 |
| 20260901094850 | 69 | 244 | 2.6 | 6.1 | 0.00 | 0.28 | 0.02 | 96 | 1013.7 |
| 20260901094344 | 69 | 161 | 1.7 | 8.7 | 0.00 | 0.28 | 0.02 | 96 | 1013.8 |
| 20260901093900 | 69 | 221 | 2.6 | 8.7 | 0.00 | 0.28 | 0.02 | 96 | 1013.8 |
| 20260901093334 | 69 | 234 | 1.7 | 3.5 | 0.00 | 0.28 | 0.02 | 96 | 1013.8 |
| 20260901092847 | 69 | 219 | 1.7 | 4.3 | 0.00 | 0.28 | 0.02 | 96 | 1013.8 |
| 20260901092342 | 69 | 178 | 0.0 | 3.5 | 0.00 | 0.28 | 0.02 | 96 | 1013.8 |
| 20260901091840 | 69 | 178 | 0.9 | 3.5 | 0.00 | 0.28 | 0.02 | 96 | 1013.7 |
| 20260901091334 | 69 | 276 | 0.9 | 3.5 | 0.00 | 0.28 | 0.02 | 96 | 1013.7 |
| 20260901090848 | 69 | 97 | 0.0 | 2.6 | 0.00 | 0.28 | 0.02 | 96 | 1013.7 |
| 20260901090404 | 69 | 167 | 0.0 | 1.7 | 0.00 | 0.28 | 0.02 | 96 | 1013.8 |
| 20260901085848 | 69 | 167 | 0.9 | 2.6 | 0.00 | 0.29 | 0.02 | 96 | 1013.7 |
| 20260901085341 | 69 | 167 | 0.0 | 2.6 | 0.00 | 0.29 | 0.02 | 96 | 1013.8 |
| 20260901084835 | 69 | 167 | 0.9 | 2.6 | 0.00 | 0.29 | 0.02 | 96 | 1013.8 |
| 20260901084348 | 69 | 167 | 0.0 | 1.7 | 0.00 | 0.29 | 0.02 | 96 | 1013.8 |
| 20260901083842 | 69 | 167 | 0.0 | 2.6 | 0.00 | 0.29 | 0.02 | 96 | 1013.8 |
| 20260901083338 | 69 | 167 | 0.0 | 3.5 | 0.00 | 0.29 | 0.02 | 96 | 1013.8 |
| 20260901082833 | 69 | 167 | 0.9 | 2.6 | 0.00 | 0.29 | 0.02 | 96 | 1013.7 |
| 20260901082408 | 69 | 167 | 0.0 | 1.7 | 0.00 | 0.29 | 0.02 | 96 | 1013.8 |
| 20260901081840 | 68 | 163 | 0.0 | 1.7 | 0.00 | 0.29 | 0.02 | 96 | 1013.9 |
| 20260901081335 | 68 | 163 | 0.0 | 1.7 | 0.00 | 0.29 | 0.02 | 96 | 1013.9 |
| 20260901080851 | 68 | 163 | 0.0 | 1.7 | 0.00 | 0.29 | 0.02 | 96 | 1013.9 |
| 20260901080345 | 68 | 163 | 0.0 | 2.6 | 0.00 | 0.29 | 0.02 | 96 | 1013.8 |
| 20260901075833 | 68 | 193 | 0.0 | 1.7 | 0.00 | 0.32 | 0.02 | 96 | 1013.9 |
| 20260901075349 | 68 | 193 | 0.0 | 2.6 | 0.00 | 0.32 | 0.02 | 96 | 1013.9 |
| 20260901074844 | 68 | 193 | 0.9 | 2.6 | 0.00 | 0.32 | 0.02 | 96 | 1014.1 |
| 20260901074338 | 68 | 193 | 0.0 | 1.7 | 0.00 | 0.32 | 0.02 | 96 | 1014.2 |
| 20260901073912 | 68 | 193 | 0.0 | 1.7 | 0.00 | 0.32 | 0.02 | 96 | 1014.3 |
| 20260901073405 | 68 | 193 | 0.0 | 2.6 | 0.00 | 0.32 | 0.02 | 96 | 1014.4 |
| 20260901072839 | 68 | 193 | 0.9 | 2.6 | 0.00 | 0.32 | 0.02 | 96 | 1014.4 |
| 20260901072354 | 68 | 162 | 0.0 | 2.6 | 0.00 | 0.32 | 0.02 | 96 | 1014.5 |
| 20260901071847 | 68 | 162 | 0.9 | 2.6 | 0.00 | 0.32 | 0.02 | 96 | 1014.4 |
| 20260901071342 | 68 | 188 | 0.0 | 2.6 | 0.00 | 0.32 | 0.02 | 96 | 1014.5 |
| 20260901070857 | 68 | 197 | 0.0 | 2.6 | 0.00 | 0.32 | 0.02 | 96 | 1014.7 |
| 20260901070335 | 68 | 198 | 0.0 | 1.7 | 0.00 | 0.32 | 0.02 | 96 | 1014.8 |
| 20260901065900 | 69 | 198 | 0.9 | 1.7 | 0.00 | 0.33 | 0.02 | 96 | 1014.9 |
| 20260901065336 | 68 | 198 | 0.0 | 1.7 | 0.00 | 0.33 | 0.02 | 96 | 1014.9 |
| 20260901064831 | 69 | 198 | 0.0 | 1.7 | 0.00 | 0.33 | 0.02 | 96 | 1014.9 |
| 20260901064346 | 69 | 198 | 0.9 | 1.7 | 0.00 | 0.33 | 0.02 | 96 | 1015.0 |
| 20260901063842 | 69 | 198 | 0.0 | 0.9 | 0.00 | 0.33 | 0.02 | 96 | 1015.0 |
| 20260901063355 | 69 | 198 | 0.0 | 1.7 | 0.00 | 0.33 | 0.02 | 96 | 1015.1 |
| 20260901062849 | 69 | 198 | 0.0 | 1.7 | 0.00 | 0.33 | 0.02 | 96 | 1015.1 |
| 20260901062343 | 69 | 198 | 0.0 | 1.7 | 0.00 | 0.33 | 0.02 | 96 | 1015.2 |
| 20260901061839 | 69 | 198 | 0.0 | 1.7 | 0.00 | 0.33 | 0.02 | 96 | 1015.3 |
| 20260901061332 | 69 | 198 | 0.0 | 1.7 | 0.00 | 0.33 | 0.02 | 96 | 1015.3 |
| 20260901060846 | 69 | 198 | 0.9 | 1.7 | 0.00 | 0.33 | 0.02 | 96 | 1015.2 |
| 20260901060341 | 69 | 198 | 0.0 | 1.7 | 0.00 | 0.33 | 0.02 | 96 | 1015.2 |
| 20260901055848 | 69 | 198 | 0.0 | 2.6 | 0.00 | 0.33 | 0.02 | 96 | 1015.3 |
| 20260901055341 | 69 | 198 | 0.9 | 2.6 | 0.00 | 0.33 | 0.02 | 96 | 1015.3 |
| 20260901054836 | 68 | 212 | 0.0 | 1.7 | 0.00 | 0.33 | 0.02 | 96 | 1015.3 |
| 20260901054409 | 68 | 212 | 0.9 | 1.7 | 0.00 | 0.33 | 0.02 | 96 | 1015.2 |
| 20260901053903 | 68 | 212 | 0.0 | 1.7 | 0.00 | 0.33 | 0.02 | 96 | 1015.3 |
| 20260901053336 | 68 | 212 | 0.9 | 1.7 | 0.00 | 0.33 | 0.02 | 96 | 1015.2 |
| 20260901052911 | 68 | 212 | 0.9 | 2.6 | 0.00 | 0.33 | 0.02 | 96 | 1015.3 |
| 20260901052344 | 68 | 268 | 0.9 | 2.6 | 0.01 | 0.33 | 0.02 | 96 | 1015.6 |
| 20260901051838 | 68 | 236 | 0.9 | 2.6 | 0.01 | 0.33 | 0.02 | 96 | 1015.6 |
| 20260901051352 | 68 | 227 | 0.0 | 1.7 | 0.01 | 0.33 | 0.02 | 96 | 1015.7 |
| 20260901050907 | 68 | 251 | 0.0 | 1.7 | 0.01 | 0.33 | 0.02 | 96 | 1015.7 |
| 20260901050341 | 68 | 251 | 0.9 | 1.7 | 0.02 | 0.33 | 0.02 | 96 | 1015.8 |
| 20260901045848 | 68 | 251 | 0.9 | 1.7 | 0.02 | 0.34 | 0.02 | 96 | 1015.8 |
| 20260901045342 | 68 | 251 | 0.9 | 1.7 | 0.03 | 0.34 | 0.02 | 95 | 1015.8 |
| 20260901044837 | 68 | 251 | 0.9 | 1.7 | 0.03 | 0.34 | 0.02 | 95 | 1015.9 |
| 20260901044351 | 68 | 251 | 0.0 | 2.6 | 0.03 | 0.34 | 0.02 | 95 | 1015.9 |
| 20260901043904 | 69 | 251 | 0.9 | 2.6 | 0.03 | 0.34 | 0.02 | 96 | 1015.9 |
| 20260901043338 | 69 | 251 | 0.9 | 3.5 | 0.03 | 0.34 | 0.02 | 96 | 1015.9 |
| 20260901042836 | 69 | 251 | 2.6 | 7.0 | 0.02 | 0.33 | 0.01 | 96 | 1016.0 |
| 20260901042405 | 69 | 238 | 1.7 | 7.0 | 0.02 | 0.33 | 0.01 | 96 | 1016.1 |
| 20260901041841 | 69 | 236 | 1.7 | 4.3 | 0.02 | 0.33 | 0.01 | 96 | 1016.0 |
| 20260901041336 | 69 | 220 | 1.7 | 4.3 | 0.02 | 0.33 | 0.01 | 96 | 1016.0 |
| 20260901040910 | 69 | 240 | 0.9 | 2.6 | 0.01 | 0.32 | 0.00 | 96 | 1016.0 |
| 20260901040344 | 68 | 253 | 0.9 | 2.6 | 0.01 | 0.32 | 0.00 | 96 | 1016.0 |
| 20260901035911 | 68 | 253 | 0.9 | 2.6 | 0.01 | 0.35 | 0.32 | 96 | 1016.0 |
| 20260901035345 | 68 | 188 | 0.9 | 2.6 | 0.00 | 0.34 | 0.31 | 96 | 1016.1 |
| 20260901034839 | 68 | 269 | 0.0 | 0.0 | 0.00 | 0.34 | 0.31 | 96 | 1016.1 |
| 20260901034413 | 68 | 269 | 0.0 | 0.0 | 0.00 | 0.34 | 0.31 | 96 | 1016.1 |
| 20260901033845 | 68 | 269 | 0.0 | 0.0 | 0.00 | 0.34 | 0.31 | 96 | 1016.2 |
| 20260901033339 | 68 | 269 | 0.0 | 0.0 | 0.00 | 0.34 | 0.31 | 96 | 1016.1 |
| 20260901032852 | 68 | 269 | 0.0 | 0.0 | 0.00 | 0.34 | 0.31 | 96 | 1016.1 |
| 20260901032348 | 68 | 269 | 0.0 | 0.0 | 0.00 | 0.34 | 0.31 | 96 | 1016.2 |
| 20260901031843 | 68 | 269 | 0.0 | 0.0 | 0.00 | 0.34 | 0.31 | 96 | 1016.3 |
| 20260901031338 | 68 | 269 | 0.0 | 0.0 | 0.00 | 0.34 | 0.31 | 96 | 1016.3 |
| 20260901030853 | 68 | 269 | 0.0 | 0.0 | 0.00 | 0.34 | 0.31 | 95 | 1016.2 |
| 20260901030407 | 68 | 269 | 0.0 | 0.0 | 0.00 | 0.34 | 0.31 | 95 | 1016.3 |
| 20260901025832 | 68 | 269 | 0.0 | 0.0 | 0.00 | 0.43 | 0.31 | 95 | 1016.4 |
| 20260901025347 | 68 | 269 | 0.0 | 0.0 | 0.00 | 0.43 | 0.31 | 95 | 1016.5 |
| 20260901024841 | 68 | 269 | 0.0 | 0.0 | 0.00 | 0.43 | 0.31 | 95 | 1016.4 |
| 20260901024334 | 68 | 268 | 0.0 | 0.0 | 0.00 | 0.43 | 0.31 | 95 | 1016.5 |
| 20260901023851 | 68 | 269 | 0.0 | 1.7 | 0.00 | 0.43 | 0.31 | 95 | 1016.5 |
| 20260901023345 | 68 | 269 | 0.0 | 1.7 | 0.00 | 0.43 | 0.31 | 95 | 1016.5 |
| 20260901022839 | 68 | 269 | 0.9 | 1.7 | 0.00 | 0.43 | 0.31 | 95 | 1016.6 |
| 20260901022355 | 68 | 269 | 0.9 | 1.7 | 0.00 | 0.43 | 0.31 | 95 | 1016.7 |
| 20260901021847 | 68 | 269 | 0.9 | 1.7 | 0.00 | 0.43 | 0.31 | 95 | 1016.8 |
| 20260901021340 | 68 | 281 | 0.0 | 1.7 | 0.00 | 0.43 | 0.31 | 95 | 1016.8 |
| 20260901020835 | 68 | 281 | 0.9 | 1.7 | 0.00 | 0.43 | 0.31 | 95 | 1017.0 |
| 20260901020329 | 68 | 284 | 0.0 | 2.6 | 0.00 | 0.43 | 0.31 | 95 | 1016.9 |
| 20260901015837 | 68 | 202 | 0.9 | 2.6 | 0.00 | 0.46 | 0.31 | 95 | 1016.9 |
| 20260901015353 | 68 | 242 | 0.9 | 1.7 | 0.00 | 0.46 | 0.31 | 95 | 1017.0 |
| 20260901014846 | 68 | 242 | 0.9 | 1.7 | 0.00 | 0.46 | 0.31 | 95 | 1017.0 |
| 20260901014400 | 68 | 242 | 0.9 | 1.7 | 0.00 | 0.46 | 0.31 | 95 | 1017.0 |
| 20260901013832 | 68 | 242 | 0.0 | 1.7 | 0.00 | 0.46 | 0.31 | 95 | 1016.9 |
| 20260901013347 | 68 | 242 | 0.0 | 1.7 | 0.00 | 0.46 | 0.31 | 95 | 1016.8 |
| 20260901012905 | 68 | 242 | 0.0 | 1.7 | 0.00 | 0.46 | 0.31 | 95 | 1017.0 |
| 20260901012344 | 68 | 242 | 0.0 | 0.9 | 0.00 | 0.46 | 0.31 | 95 | 1016.9 |
| 20260901011838 | 68 | 242 | 0.0 | 0.9 | 0.00 | 0.46 | 0.31 | 95 | 1016.9 |
| 20260901011352 | 68 | 242 | 0.0 | 0.9 | 0.00 | 0.46 | 0.31 | 95 | 1017.0 |
| 20260901010846 | 68 | 242 | 0.0 | 0.9 | 0.00 | 0.46 | 0.31 | 95 | 1017.0 |
| 20260901010341 | 68 | 242 | 0.0 | 1.7 | 0.00 | 0.46 | 0.31 | 95 | 1017.0 |
| 20260901005908 | 68 | 242 | 0.9 | 1.7 | 0.00 | 0.47 | 0.31 | 94 | 1016.9 |
| 20260901005341 | 68 | 242 | 0.9 | 0.9 | 0.00 | 0.47 | 0.31 | 94 | 1016.9 |
| 20260901004835 | 68 | 242 | 0.0 | 1.7 | 0.00 | 0.47 | 0.31 | 94 | 1016.9 |
| 20260901004351 | 69 | 242 | 0.0 | 2.6 | 0.00 | 0.47 | 0.31 | 94 | 1016.9 |
| 20260901003906 | 68 | 242 | 0.9 | 2.6 | 0.00 | 0.47 | 0.31 | 94 | 1016.8 |
| 20260901003401 | 69 | 242 | 0.9 | 2.6 | 0.00 | 0.47 | 0.31 | 94 | 1017.0 |
| 20260901002854 | 69 | 242 | 0.0 | 1.7 | 0.00 | 0.47 | 0.31 | 94 | 1016.7 |
| 20260901002348 | 69 | 242 | 0.0 | 1.7 | 0.00 | 0.47 | 0.31 | 94 | 1016.7 |
| 20260901001843 | 69 | 242 | 0.0 | 1.7 | 0.00 | 0.47 | 0.31 | 94 | 1016.6 |
| 20260901001358 | 69 | 242 | 0.9 | 1.7 | 0.00 | 0.47 | 0.31 | 94 | 1016.6 |
| 20260901000851 | 69 | 242 | 0.0 | 2.6 | 0.00 | 0.47 | 0.31 | 94 | 1016.6 |
| 20260901000347 | 69 | 242 | 0.0 | 2.6 | 0.00 | 0.47 | 0.31 | 94 | 1016.7 |
| 20260831235835 | 69 | 225 | 0.9 | 1.7 | 0.00 | 0.48 | 0.31 | 93 | 1016.6 |
| 20260831235410 | 69 | 225 | 0.9 | 2.6 | 0.00 | 0.48 | 0.31 | 93 | 1016.7 |
| 20260831234904 | 69 | 225 | 0.9 | 2.6 | 0.00 | 0.48 | 0.31 | 93 | 1016.7 |
| 20260831234339 | 69 | 241 | 0.9 | 3.5 | 0.00 | 0.48 | 0.31 | 93 | 1016.7 |
| 20260831233852 | 69 | 238 | 1.7 | 3.5 | 0.00 | 0.48 | 0.31 | 93 | 1016.7 |
| 20260831233346 | 69 | 242 | 0.9 | 3.5 | 0.00 | 0.48 | 0.31 | 93 | 1016.7 |
| 20260831232840 | 69 | 209 | 0.9 | 2.6 | 0.00 | 0.48 | 0.31 | 93 | 1016.7 |
| 20260831232355 | 70 | 209 | 0.9 | 2.6 | 0.00 | 0.48 | 0.31 | 93 | 1016.7 |
| 20260831231849 | 70 | 209 | 1.7 | 2.6 | 0.00 | 0.48 | 0.31 | 93 | 1016.7 |
| 20260831231345 | 70 | 209 | 0.9 | 2.6 | 0.00 | 0.48 | 0.31 | 93 | 1016.7 |
| 20260831230838 | 70 | 209 | 1.7 | 2.6 | 0.00 | 0.48 | 0.31 | 93 | 1016.7 |
| 20260831230334 | 70 | 206 | 0.9 | 1.7 | 0.00 | 0.48 | 0.31 | 93 | 1016.7 |
| 20260831225841 | 70 | 206 | 0.9 | 4.3 | 0.00 | 0.49 | 0.31 | 93 | 1016.8 |
| 20260831225341 | 70 | 206 | 1.7 | 4.3 | 0.00 | 0.49 | 0.31 | 93 | 1016.7 |
| 20260831224835 | 70 | 223 | 1.7 | 4.3 | 0.00 | 0.49 | 0.31 | 93 | 1016.6 |
| 20260831224349 | 70 | 237 | 2.6 | 4.3 | 0.00 | 0.49 | 0.31 | 93 | 1016.8 |
| 20260831223845 | 70 | 198 | 0.9 | 4.3 | 0.00 | 0.49 | 0.31 | 93 | 1016.8 |
| 20260831223339 | 70 | 166 | 1.7 | 4.3 | 0.00 | 0.49 | 0.31 | 93 | 1016.9 |
| 20260831222834 | 70 | 192 | 0.9 | 2.6 | 0.00 | 0.49 | 0.31 | 93 | 1017.0 |
| 20260831222349 | 71 | 173 | 0.9 | 2.6 | 0.00 | 0.49 | 0.31 | 93 | 1016.9 |
| 20260831221843 | 71 | 173 | 0.9 | 4.3 | 0.00 | 0.49 | 0.31 | 93 | 1017.0 |
| 20260831221337 | 71 | 238 | 1.7 | 4.3 | 0.00 | 0.49 | 0.31 | 93 | 1017.0 |
| 20260831220851 | 71 | 236 | 0.0 | 6.1 | 0.00 | 0.49 | 0.31 | 93 | 1017.2 |
| 20260831220348 | 71 | 219 | 2.6 | 6.1 | 0.00 | 0.49 | 0.31 | 93 | 1017.2 |
| 20260831215836 | 71 | 207 | 0.9 | 7.8 | 0.00 | 0.49 | 0.31 | 93 | 1017.0 |
| 20260831215351 | 71 | 238 | 2.6 | 7.8 | 0.00 | 0.49 | 0.31 | 93 | 1016.8 |
| 20260831214845 | 71 | 276 | 3.5 | 7.0 | 0.00 | 0.49 | 0.31 | 93 | 1017.0 |
| 20260831214401 | 71 | 144 | 1.7 | 5.2 | 0.00 | 0.49 | 0.31 | 93 | 1017.1 |
| 20260831213833 | 71 | 190 | 1.7 | 5.2 | 0.00 | 0.49 | 0.31 | 93 | 1017.2 |
| 20260831213348 | 71 | 206 | 1.7 | 4.3 | 0.00 | 0.49 | 0.31 | 93 | 1017.3 |
| 20260831212842 | 71 | 229 | 1.7 | 5.2 | 0.00 | 0.49 | 0.31 | 93 | 1017.1 |
| 20260831212337 | 71 | 210 | 1.7 | 5.2 | 0.00 | 0.49 | 0.31 | 93 | 1017.1 |
| 20260831211851 | 71 | 214 | 0.9 | 4.3 | 0.00 | 0.49 | 0.31 | 93 | 1017.0 |
| 20260831211346 | 71 | 221 | 0.9 | 10.4 | 0.00 | 0.49 | 0.31 | 93 | 1017.0 |
| 20260831210845 | 71 | 215 | 4.3 | 10.4 | 0.00 | 0.49 | 0.31 | 93 | 1016.8 |
| 20260831210341 | 71 | 228 | 2.6 | 7.0 | 0.00 | 0.49 | 0.31 | 93 | 1016.8 |
| 20260831205848 | 71 | 215 | 1.7 | 8.7 | 0.00 | 0.49 | 0.31 | 94 | 1016.7 |